�N����,����,�~����,�C��,���x,�C��,����,���ϕ���,�ő�u�ԕ���,�ő厞����,���˗�,�I�_���x,�n�����x,�ő啗���N��,DTYPE
"21/10/19","00:10",0.0,14.2,82.0,1015.9,284.2,1.1,2.0,259.1,0.00,11.2,19.2,"00:02:48",1
"21/10/19","00:20",0.0,14.3,82.0,1016.1,310.8,1.2,1.7,303.2,0.00,11.3,19.3,"00:16:16",1
"21/10/19","00:30",0.0,14.3,82.0,1016.1,290.6,1.0,1.6,333.8,0.00,11.3,19.2,"00:20:08",1
"21/10/19","00:40",0.0,14.3,82.0,1016.1,310.2,1.2,1.9,332.8,0.00,11.3,19.1,"00:32:08",1
"21/10/19","00:50",0.0,14.3,81.8,1015.9,309.3,1.1,1.9,342.8,0.00,11.3,19.2,"00:47:44",1
"21/10/19","01:00",0.0,14.4,81.6,1015.9,301.8,1.1,1.7,320.8,0.00,11.3,19.3,"00:58:48",1
"21/10/19","01:10",0.0,14.4,81.6,1015.6,270.1,1.1,1.8,249.6,0.00,11.3,19.0,"01:08:00",1
"21/10/19","01:20",0.0,14.3,81.6,1015.6,291.3,0.8,1.7,329.5,0.00,11.2,19.2,"01:10:56",1
"21/10/19","01:30",0.0,14.4,81.8,1015.4,260.3,0.8,1.3,262.6,0.00,11.4,19.1,"01:25:14",1
"21/10/19","01:40",0.0,14.4,81.8,1015.6,263.7,1.1,1.4,260.8,0.00,11.4,19.1,"01:37:44",1
"21/10/19","01:50",0.0,14.4,81.6,1015.6,267.7,1.2,1.9,253.8,0.00,11.3,19.0,"01:46:48",1
"21/10/19","02:00",0.0,14.4,81.4,1015.2,292.8,1.2,2.1,338.4,0.00,11.3,19.1,"01:53:54",1
"21/10/19","02:10",0.0,14.4,81.5,1014.9,304.7,1.2,2.0,322.2,0.00,11.3,19.2,"02:06:16",1
"21/10/19","02:20",0.0,14.4,81.6,1015.2,281.7,0.6,1.3,320.2,0.00,11.3,19.0,"02:10:56",1
"21/10/19","02:30",0.0,14.4,81.8,1015.2,267.0,1.0,1.4,247.9,0.00,11.4,19.1,"02:25:12",1
"21/10/19","02:40",0.0,14.4,81.9,1015.2,272.0,1.1,1.6,265.1,0.00,11.4,19.1,"02:34:56",1
"21/10/19","02:50",0.0,14.4,82.0,1014.9,299.4,1.1,1.9,329.3,0.00,11.4,19.1,"02:41:20",1
"21/10/19","03:00",0.0,14.4,82.2,1014.7,263.5,0.5,1.2,266.3,0.00,11.4,18.9,"02:59:04",1
"21/10/19","03:10",0.0,14.6,82.1,1015.2,40.1,0.7,1.7,260.6,0.00,11.6,19.2,"03:05:28",1
"21/10/19","03:20",0.0,14.8,81.1,1015.2,4.5,0.6,1.7,302.6,0.00,11.6,19.1,"03:14:48",1
"21/10/19","03:30",0.0,15.0,80.0,1014.7,355.2,0.8,1.8,1.9,0.00,11.6,19.1,"03:27:04",1
"21/10/19","03:40",0.0,15.0,79.2,1014.5,35.5,0.5,1.4,74.0,0.00,11.5,19.2,"03:37:20",1
"21/10/19","03:50",0.0,15.0,79.1,1014.5,344.3,0.7,1.9,330.6,0.00,11.5,19.0,"03:46:24",1
"21/10/19","04:00",0.0,14.9,79.0,1014.7,345.0,0.8,2.1,6.4,0.00,11.3,18.9,"03:53:44",1
"21/10/19","04:10",0.0,14.9,79.3,1014.5,27.4,0.8,1.9,82.6,0.00,11.4,19.0,"04:06:56",1
"21/10/19","04:20",0.0,14.8,79.6,1014.5,358.1,0.7,1.7,336.2,0.00,11.4,19.0,"04:19:52",1
"21/10/19","04:30",0.0,14.7,79.9,1014.7,342.4,0.6,1.6,337.4,0.00,11.3,19.0,"04:24:00",1
"21/10/19","04:40",0.0,14.6,80.2,1014.5,319.3,1.1,1.9,326.0,0.00,11.3,18.9,"04:33:28",1
"21/10/19","04:50",0.0,14.5,80.6,1014.7,293.9,0.8,1.3,311.4,0.00,11.2,19.1,"04:42:32",1
"21/10/19","05:00",0.0,14.4,81.0,1014.5,304.6,0.6,1.2,322.4,0.00,11.2,18.9,"04:58:40",1
"21/10/19","05:10",0.0,14.4,81.7,1014.9,309.9,1.1,1.4,321.3,0.00,11.4,18.9,"05:01:28",1
"21/10/19","05:20",0.0,14.2,82.5,1014.2,307.2,1.0,1.3,332.5,0.00,11.3,19.0,"05:19:12",1
"21/10/19","05:30",0.0,14.2,83.5,1014.2,312.8,1.0,1.6,333.9,0.00,11.5,18.9,"05:21:38",1
"21/10/19","05:40",0.0,14.1,84.1,1014.2,269.9,0.8,1.2,254.1,0.00,11.5,18.8,"05:30:48",1
"21/10/19","05:50",0.0,14.0,84.8,1014.0,297.0,1.1,1.4,326.0,0.00,11.5,19.0,"05:40:40",1
"21/10/19","06:00",0.0,13.8,85.3,1014.2,281.1,0.8,1.2,297.3,0.00,11.4,18.9,"05:53:28",1
"21/10/19","06:10",0.0,13.8,85.7,1014.2,303.3,1.2,1.4,325.4,0.00,11.5,19.0,"06:04:16",1
"21/10/19","06:20",0.0,13.6,85.9,1013.8,324.5,1.0,1.6,333.3,0.00,11.3,19.0,"06:12:58",1
"21/10/19","06:30",0.0,13.1,86.2,1013.5,305.3,0.7,1.2,335.5,0.00,10.9,18.9,"06:21:26",1
"21/10/19","06:40",0.0,12.7,86.7,1014.0,294.7,1.1,1.6,320.2,0.00,10.6,19.0,"06:32:28",1
"21/10/19","06:50",0.0,12.5,87.1,1014.0,299.7,1.1,1.3,318.3,0.00,10.5,18.7,"06:47:02",1
"21/10/19","07:00",0.0,12.5,87.6,1014.0,307.2,1.2,1.6,334.9,0.00,10.5,18.9,"06:53:22",1
"21/10/19","07:10",0.0,12.4,88.0,1013.8,301.8,1.0,1.8,310.7,0.00,10.5,18.7,"07:00:46",1
"21/10/19","07:20",0.0,12.3,88.5,1013.5,317.2,1.3,1.7,320.8,0.00,10.5,18.7,"07:18:48",1
"21/10/19","07:30",0.0,13.0,89.2,1013.5,311.3,1.1,2.0,319.3,0.02,11.3,18.5,"07:24:00",1
"21/10/19","07:40",0.0,14.0,89.4,1013.3,275.3,0.5,1.0,276.4,0.04,12.3,18.9,"07:30:16",1
"21/10/19","07:50",0.0,14.8,89.1,1013.5,257.7,0.6,1.0,273.2,0.06,13.1,18.7,"07:49:20",1
"21/10/19","08:00",0.0,15.4,88.1,1013.5,323.8,0.7,1.6,332.0,0.09,13.5,18.7,"07:58:40",1
"21/10/19","08:10",0.0,15.8,86.8,1013.8,273.1,0.8,1.4,251.3,0.11,13.6,18.8,"08:06:16",1
"21/10/19","08:20",0.0,16.2,84.4,1014.0,248.2,0.7,2.2,137.9,0.13,13.6,18.9,"08:16:48",1
"21/10/19","08:30",0.0,16.8,80.2,1013.8,87.2,0.7,1.9,115.4,0.15,13.4,18.6,"08:29:20",1
"21/10/19","08:40",0.0,17.1,75.5,1014.0,231.7,0.8,1.8,209.3,0.19,12.8,18.7,"08:35:28",1
"21/10/19","08:50",0.0,17.6,72.4,1013.0,118.5,0.6,1.8,104.8,0.21,12.6,18.7,"08:42:24",1
"21/10/19","09:00",0.0,18.0,70.0,1012.8,216.5,0.6,2.4,241.7,0.23,12.5,18.5,"08:55:20",1
"21/10/19","09:10",0.0,18.4,68.9,1012.6,268.9,0.8,3.2,136.9,0.25,12.6,18.7,"09:04:00",1
"21/10/19","09:20",0.0,18.3,68.8,1012.3,317.9,0.6,1.7,334.3,0.12,12.5,18.7,"09:10:56",1
"21/10/19","09:30",0.0,17.6,69.7,1012.3,259.5,1.0,2.4,250.6,0.07,12.0,18.7,"09:28:00",1
"21/10/19","09:40",0.0,17.0,71.0,1012.1,340.8,1.2,2.6,345.9,0.05,11.7,18.9,"09:35:28",1
"21/10/19","09:50",0.0,17.0,71.5,1011.9,36.1,0.6,1.3,355.3,0.07,11.9,18.8,"09:41:20",1
"21/10/19","10:00",0.0,17.5,71.8,1011.9,346.5,1.1,2.1,0.3,0.16,12.4,19.1,"09:56:00",1
"21/10/19","10:10",0.0,18.4,69.5,1011.6,343.6,1.2,2.7,342.5,0.35,12.8,18.8,"10:02:40",1
"21/10/19","10:20",0.0,19.0,67.3,1011.4,346.4,1.3,2.5,307.4,0.42,12.8,18.8,"10:10:32",1
"21/10/19","10:30",0.0,18.6,66.0,1011.2,78.7,0.6,1.8,349.6,0.15,12.2,19.0,"10:26:48",1
"21/10/19","10:40",0.0,19.0,66.9,1011.2,313.6,0.5,1.4,337.6,0.18,12.8,18.9,"10:35:36",1
"21/10/19","10:50",0.0,18.8,67.2,1011.2,124.5,0.6,2.1,105.8,0.14,12.6,19.0,"10:47:04",1
"21/10/19","11:00",0.0,19.6,66.3,1010.9,35.0,0.8,2.0,17.6,0.39,13.2,19.0,"10:50:24",1
"21/10/19","11:10",0.0,19.8,65.6,1010.7,173.6,0.7,1.7,193.7,0.28,13.2,19.1,"11:02:40",1
"21/10/19","11:20",0.0,19.6,64.1,1010.7,348.2,1.5,2.8,335.1,0.24,12.7,19.2,"11:17:36",1
"21/10/19","11:30",0.0,19.5,65.1,1010.4,314.4,0.7,2.0,342.7,0.19,12.8,19.1,"11:28:32",1
"21/10/19","11:40",0.0,20.0,64.4,1010.2,351.0,1.0,2.5,347.4,0.28,13.1,19.2,"11:38:40",1
"21/10/19","11:50",0.0,20.3,63.6,1010.0,73.4,0.5,1.4,32.1,0.23,13.2,19.3,"11:42:08",1
"21/10/19","12:00",0.0,20.0,63.3,1009.5,120.8,0.6,1.6,98.2,0.24,12.9,19.3,"11:51:36",1
"21/10/19","12:10",0.0,20.7,61.9,1009.7,243.9,1.0,2.1,317.1,0.39,13.2,19.4,"12:02:00",1
"21/10/19","12:20",0.0,21.0,60.9,1009.3,79.7,1.0,2.9,93.3,0.29,13.2,19.4,"12:17:04",1
"21/10/19","12:30",0.0,20.5,60.6,1008.6,127.1,1.0,1.9,101.1,0.19,12.7,19.4,"12:20:16",1
"21/10/19","12:40",0.0,19.8,62.5,1008.8,187.9,1.1,2.6,203.8,0.09,12.5,19.4,"12:39:44",1
"21/10/19","12:50",0.0,19.3,64.5,1008.6,175.7,0.7,2.0,130.6,0.02,12.5,19.4,"12:49:28",1
"21/10/19","13:00",0.0,19.1,66.7,1008.8,187.3,0.6,2.0,130.8,0.04,12.8,19.6,"12:53:36",1
"21/10/19","13:10",0.0,19.0,68.2,1008.8,201.1,1.3,3.2,186.5,0.06,13.1,19.5,"13:09:12",1
"21/10/19","13:20",0.0,18.6,71.3,1008.6,208.3,1.7,4.2,227.1,0.09,13.3,19.7,"13:15:20",1
"21/10/19","13:30",0.0,18.4,73.9,1008.3,213.2,1.8,3.9,227.4,0.11,13.7,19.7,"13:27:20",1
"21/10/19","13:40",0.0,18.1,75.7,1008.3,215.4,1.2,2.8,237.4,0.05,13.8,19.6,"13:30:48",1
"21/10/19","13:50",0.0,17.7,75.5,1008.1,210.9,1.3,3.5,220.4,0.04,13.4,19.8,"13:43:36",1
"21/10/19","14:00",0.0,17.7,76.1,1008.1,237.6,0.5,1.7,239.2,0.03,13.5,19.7,"13:52:48",1
"21/10/19","14:10",0.0,17.5,76.4,1007.8,303.3,0.3,1.2,315.6,0.01,13.3,19.7,"14:09:52",1
"21/10/19","14:20",0.0,17.8,78.7,1007.8,327.4,1.3,2.1,336.6,0.02,14.1,19.6,"14:12:48",1
"21/10/19","14:30",0.0,17.6,80.8,1007.6,310.3,1.3,1.8,321.8,0.02,14.3,19.5,"14:23:40",1
"21/10/19","14:40",0.0,17.5,82.3,1007.8,290.6,1.1,1.9,295.2,0.04,14.5,19.7,"14:33:52",1
"21/10/19","14:50",0.0,17.3,83.3,1008.1,293.3,1.2,2.2,241.7,0.02,14.5,19.7,"14:43:12",1
"21/10/19","15:00",0.0,17.3,83.9,1007.6,305.7,1.1,2.1,339.3,0.03,14.6,19.8,"14:56:40",1
"21/10/19","15:10",0.0,17.1,84.0,1007.8,318.5,1.3,2.2,339.5,0.02,14.4,19.8,"15:08:00",1
"21/10/19","15:20",0.0,17.4,84.0,1007.8,314.6,1.1,2.2,331.0,0.04,14.7,19.6,"15:15:04",1
"21/10/19","15:30",0.0,17.1,83.4,1007.4,327.2,1.6,2.8,349.0,0.03,14.3,19.7,"15:29:04",1
"21/10/19","15:40",0.0,17.6,83.3,1007.1,333.2,1.0,2.4,347.7,0.06,14.8,19.8,"15:30:24",1
"21/10/19","15:50",0.0,17.7,82.5,1007.8,306.7,1.1,2.4,349.0,0.06,14.7,19.8,"15:44:16",1
"21/10/19","16:00",0.0,17.8,81.8,1007.6,316.1,0.5,2.0,320.1,0.04,14.7,19.7,"15:50:24",1
"21/10/19","16:10",0.0,17.5,81.2,1007.6,226.2,1.0,2.2,233.1,0.03,14.3,19.5,"16:06:32",1
"21/10/19","16:20",0.0,17.3,81.6,1007.4,168.7,1.0,1.9,140.5,0.04,14.2,19.8,"16:14:56",1
"21/10/19","16:30",0.0,17.0,82.7,1007.4,160.2,0.7,2.2,131.6,0.03,14.1,19.7,"16:21:12",1
"21/10/19","16:40",0.0,16.9,83.3,1007.6,198.0,0.7,2.1,186.4,0.03,14.1,19.6,"16:36:40",1
"21/10/19","16:50",0.0,16.8,83.8,1007.6,243.0,0.6,1.6,198.6,0.02,14.1,19.7,"16:47:04",1
"21/10/19","17:00",0.0,16.8,84.1,1007.1,110.4,0.6,1.1,130.1,0.02,14.1,19.7,"16:52:16",1
"21/10/19","17:10",0.0,16.6,84.3,1006.9,175.0,0.5,1.1,186.5,0.00,14.0,19.5,"17:09:12",1
"21/10/19","17:20",0.0,16.2,84.6,1006.7,180.8,0.5,1.1,132.0,0.00,13.6,19.7,"17:12:00",1
"21/10/19","17:30",0.0,16.0,84.9,1007.1,280.9,0.3,1.1,269.5,0.00,13.5,19.7,"17:29:52",1
"21/10/19","17:40",0.0,15.8,85.2,1006.9,302.3,0.6,1.3,349.6,0.00,13.4,19.6,"17:38:08",1
"21/10/19","17:50",0.0,15.7,85.5,1007.6,314.8,1.0,1.3,318.5,0.00,13.3,19.7,"17:44:00",1
"21/10/19","18:00",0.0,15.4,86.4,1007.1,322.6,1.2,1.7,328.0,0.00,13.2,19.6,"17:51:44",1
"21/10/19","18:10",0.0,15.2,86.9,1007.4,319.1,1.0,1.3,336.3,0.00,13.1,19.7,"18:09:28",1
"21/10/19","18:20",0.0,15.2,87.5,1007.1,329.0,1.2,1.6,338.3,0.00,13.2,19.7,"18:10:24",1
"21/10/19","18:30",0.0,15.0,88.1,1007.1,313.0,1.1,1.4,326.8,0.00,13.1,19.4,"18:20:24",1
"21/10/19","18:40",0.0,14.9,88.6,1007.4,311.8,1.1,1.7,323.8,0.00,13.1,19.7,"18:31:44",1
"21/10/19","18:50",0.0,14.9,89.1,1007.1,290.9,1.0,1.4,316.1,0.00,13.2,19.6,"18:41:20",1
"21/10/19","19:00",0.0,14.8,89.4,1007.6,292.8,0.8,1.1,307.0,0.00,13.1,19.5,"18:53:12",1
"21/10/19","19:10",0.0,14.8,89.8,1007.8,303.4,1.1,1.7,337.9,0.00,13.2,19.5,"19:07:20",1
"21/10/19","19:20",0.0,14.7,90.1,1007.6,293.8,1.0,1.4,315.0,0.00,13.1,19.6,"19:10:08",1
"21/10/19","19:30",0.0,14.7,90.5,1007.6,306.8,1.1,1.6,324.7,0.00,13.2,19.4,"19:28:56",1
"21/10/19","19:40",0.0,14.8,90.8,1007.4,327.7,1.3,1.9,323.2,0.00,13.4,19.4,"19:33:44",1
"21/10/19","19:50",0.0,14.9,91.2,1007.4,324.9,1.5,2.0,329.3,0.00,13.5,19.3,"19:46:08",1
"21/10/19","20:00",0.2,15.0,91.5,1007.8,326.0,1.8,3.1,343.7,0.00,13.7,19.2,"19:55:36",1
"21/10/19","20:10",0.6,14.9,91.7,1007.8,325.8,1.5,3.2,335.4,0.00,13.6,19.4,"20:01:36",1
"21/10/19","20:20",0.4,14.9,92.0,1008.1,330.2,0.6,1.4,347.9,0.00,13.7,19.4,"20:19:48",1
"21/10/19","20:30",0.2,14.9,92.3,1007.1,15.6,0.7,1.7,343.6,0.00,13.7,19.2,"20:22:50",1
"21/10/19","20:40",0.0,14.7,92.4,1007.4,281.1,0.8,1.4,307.4,0.00,13.5,19.3,"20:33:28",1
"21/10/19","20:50",0.0,14.6,92.7,1006.9,267.3,1.0,1.7,244.4,0.00,13.5,19.2,"20:42:40",1
"21/10/19","21:00",0.0,14.4,92.8,1006.9,304.7,0.8,1.3,341.1,0.00,13.3,19.2,"20:59:54",1
"21/10/19","21:10",0.2,14.1,93.1,1007.4,346.7,1.1,1.8,334.4,0.00,13.0,19.2,"21:01:36",1
"21/10/19","21:20",0.0,13.8,93.2,1007.4,342.8,0.8,1.6,343.1,0.00,12.8,19.2,"21:13:20",1
"21/10/19","21:30",0.0,13.6,93.5,1007.1,344.9,1.1,1.8,341.8,0.00,12.6,19.1,"21:27:36",1
"21/10/19","21:40",0.0,13.5,93.9,1007.1,345.8,1.1,1.7,333.9,0.00,12.6,19.1,"21:30:56",1
"21/10/19","21:50",0.0,13.4,94.0,1007.1,352.6,0.8,1.6,11.1,0.00,12.5,19.3,"21:41:44",1
"21/10/19","22:00",0.0,13.0,94.2,1007.1,298.1,1.0,1.6,333.3,0.00,12.1,19.1,"21:54:24",1
"21/10/19","22:10",0.0,12.9,94.5,1007.1,313.3,1.3,3.3,336.5,0.00,12.1,19.2,"22:05:36",1
"21/10/19","22:20",0.0,12.8,94.8,1007.4,340.3,1.6,2.9,332.9,0.00,12.0,19.1,"22:18:48",1
"21/10/19","22:30",0.0,12.6,94.9,1007.4,328.4,1.3,2.4,331.3,0.00,11.8,19.0,"22:24:24",1
"21/10/19","22:40",0.0,12.2,95.0,1007.4,303.7,0.8,1.9,333.4,0.00,11.5,19.1,"22:31:44",1
"21/10/19","22:50",0.0,12.0,95.3,1007.6,275.6,0.7,1.4,348.9,0.00,11.3,19.1,"22:49:28",1
"21/10/19","23:00",0.0,12.0,95.5,1007.4,337.0,1.3,2.0,352.4,0.00,11.3,19.0,"22:56:24",1
"21/10/19","23:10",0.0,11.9,95.6,1007.4,333.1,1.5,2.2,327.2,0.00,11.3,18.9,"23:07:36",1
"21/10/19","23:20",0.0,11.7,95.8,1007.6,316.3,1.2,1.9,332.4,0.00,11.1,18.8,"23:16:08",1
"21/10/19","23:30",0.0,11.7,95.9,1007.1,309.1,1.2,2.1,338.3,0.00,11.1,18.7,"23:26:00",1
"21/10/19","23:40",0.0,11.8,96.0,1007.1,299.8,1.2,1.8,320.8,0.00,11.2,18.8,"23:39:12",1
"21/10/19","23:50",0.0,12.1,96.2,1007.8,304.0,1.8,3.4,332.3,0.00,11.6,18.7,"23:49:12",1
"21/10/19","24:00",0.0,12.1,96.2,1007.1,319.5,1.5,2.4,306.2,0.00,11.6,18.7,"23:50:08",1
